Location: Unspecified
(43.4680°N, 87.1740°E)
Time: 21:14:58
(UTC+00:00)

CZ-2D R/B - Pass Details

Date: 28 July 2021
Orbit: 553 x 637 km, 97.9° (Epoch: 20 September)

Event Time Altitude Azimuth Distance (km) Brightness Sun altitude
Rises 20:58:42 0° 24° (NNE) 2,761 8.4 -17.7°
Reaches altitude 10° 21:01:06 10° 37° (NE) 1,869 7.3 -17.4°
Maximum altitude 21:04:33 27° 96° (E) 1,122 5.2 -17.0°
Drops below altitude 10° 21:08:03 10° 155° (SSE) 1,892 5.8 -16.6°
Enters shadow 21:08:35 - 159° (SSE) 2,082 6.0 -16.5°
